{"data":{"norad_id":66814,"intl_designator":"2025-278Z","name":"STARLINK-35984","alt_names":[],"object_type":"PAYLOAD","status":"ACTIVE","operator":null,"country":"US","launch_date":"2025-12-01","launch_site_code":"AFETR","launch_vehicle":null,"mission":null,"orbit_class":"UNKNOWN","rcs_meters":null,"size_class":null,"mass_kg":null,"dimensions":null,"purposes":["comms"],"wikipedia_slug":null,"has_3d_model":false,"image_url":null,"decayed_at":null,"tle_current":{"epoch":"2026-09-20T22:36:09.837792Z","epoch_age_seconds":48372,"freshness":"FRESH","line1":"1 66814U 25278Z   26263.94178053  .00010639  00000+0  39547-3 0  9994","line2":"2 66814  42.9970  91.4002 0000551  18.3612 341.7259 15.27587123 45074","mean_motion":15.27587123,"eccentricity":5.51e-5,"inclination_deg":42.997,"raan_deg":91.4002,"arg_perigee_deg":18.3612,"mean_anomaly_deg":341.7259,"bstar":0.00039547,"rev_number":4507,"period_min":94.266309156365,"perigee_km":482.64971711937,"apogee_km":483.40581747672,"semimajor_km":6861.164767298,"source":"CELESTRAK","updated_at":"2026-09-21T09:00:36.018137Z"}}}